, AK

(GMT )
Deadhorse

Weather History for PASC - October, 2012

Change the Weather History Date:

Wednesday, October 17, 2012

  Actual Average Record
Temperature  
Mean Temperature 24 °F -  
Max Temperature 30 °F 16 °F 36 °F (2013)
Min Temperature 21 °F 5 °F -20 °F (1996)
Degree Days  
Heating Degree Days 42    
Moisture  
Dew Point 23 °F    
Average Humidity 95    
Maximum Humidity 100    
Minimum Humidity 89    
Precipitation  
Precipitation 0.04 in - - ()
Sea Level Pressure  
Sea Level Pressure 29.90 in    
Wind  
Wind Speed 7 mph (SW)    
Max Wind Speed 14 mph    
Max Gust Speed -    
Visibility 2 miles    
Events Snow    
Averages and records for this station are not official NWS values.
T = Trace of Precipitation, MM = Missing Value Source: NWS Daily Summary

Daily Weather History Graph

Daily Weather History Graph

Search for Another Location

Airport or City:

Trip Planner

Search our weather history database for the weather conditions in past years. The results will help you decide how hot, cold, wet, or windy it might be!

Date:

Astronomy

Oct. 17, 2012 Rise Set
Actual Time 9:19 AM AKDT 5:56 PM AKDT
Civil Twilight 8:14 AM AKDT 7:01 PM AKDT
Nautical Twilight 7:03 AM AKDT 8:12 PM AKDT
Astronomical Twilight 5:49 AM AKDT 9:25 PM AKDT
Moon No Moon Rise No Moon Set
Length of Visible Light 10h 46m
Length of Day
8h 37m
Waxing Crescent, 8% of the Moon is Illuminated
Oct 17
Waxing Crescent
Oct 21
First Quarter
Oct 29
Full
Nov 6
Last Quarter
Nov 13
New

Hourly Weather History & Observations

Time (AKDT) Temp. Windchill Dew Point Humidity Pressure Visibility Wind Dir Wind Speed Gust Speed Precip Events Conditions
12:53 AM 21.9 °F 10.4 °F 19.0 °F 89% 29.80 in 3.0 mi WSW 11.5 mph - 0.00 in Snow Light Snow
1:28 AM 21.2 °F 9.5 °F 19.4 °F 93% 29.80 in 2.0 mi WSW 11.5 mph - 0.01 in Snow Light Snow
1:53 AM 21.9 °F 9.8 °F 19.9 °F 92% 29.80 in 2.0 mi WSW 12.7 mph - 0.01 in Snow Light Snow
2:53 AM 21.9 °F 9.8 °F 19.9 °F 92% 29.81 in 1.5 mi WSW 12.7 mph - 0.01 in Snow Light Snow
3:53 AM 21.9 °F 10.4 °F 21.0 °F 96% 29.81 in 1.0 mi SW 11.5 mph - 0.01 in Snow Light Snow
4:53 AM 23.0 °F 10.6 °F 21.0 °F 92% 29.81 in 1.0 mi SSW 13.8 mph - 0.00 in Snow Light Snow
5:35 AM 23.0 °F 11.1 °F 21.2 °F 93% 29.81 in 2.0 mi SSW 12.7 mph - 0.00 in Snow Light Snow
5:53 AM 23.0 °F 11.7 °F 21.0 °F 92% 29.82 in 3.0 mi SSW 11.5 mph - 0.00 in Snow Light Snow
6:53 AM 24.1 °F 15.2 °F 21.9 °F 91% 29.83 in 3.0 mi South 8.1 mph - 0.00 in Snow Light Snow
7:53 AM 24.1 °F 18.2 °F 23.0 °F 96% 29.85 in 5.0 mi South 4.6 mph - 0.00 in Snow Light Snow
8:19 AM 24.8 °F 19.1 °F 23.0 °F 93% 29.84 in 3.0 mi SE 4.6 mph - 0.00 in Snow Light Snow
8:53 AM 25.0 °F - 23.0 °F 92% 29.86 in 3.0 mi Calm Calm - 0.01 in Snow Light Snow
9:29 AM 24.8 °F - 24.8 °F 100% 29.86 in 1.8 mi Calm Calm - 0.00 in Snow Light Snow
9:53 AM 25.0 °F - 23.0 °F 92% 29.87 in 1.0 mi Calm Calm - 0.00 in Snow Light Snow
10:53 AM 25.0 °F - 24.1 °F 96% 29.88 in 1.2 mi Calm Calm - 0.00 in Snow Light Snow
11:53 AM 25.0 °F - 24.1 °F 96% 29.89 in 1.5 mi Calm Calm - 0.00 in Snow Light Snow
12:53 PM 25.0 °F - 24.1 °F 96% 29.90 in 1.8 mi Calm Calm - 0.00 in Snow Light Snow
1:09 PM 24.8 °F - 24.8 °F 100% 29.90 in 1.5 mi Calm Calm - 0.00 in Snow Light Snow
1:53 PM 25.0 °F - 24.1 °F 96% 29.91 in 1.2 mi Calm Calm - 0.00 in Snow Light Snow
2:53 PM 25.0 °F 20.7 °F 24.1 °F 96% 29.92 in 1.5 mi ESE 3.5 mph - 0.00 in Snow Light Snow
3:53 PM 25.0 °F 20.7 °F 24.1 °F 96% 29.93 in 1.5 mi ESE 3.5 mph - 0.00 in Snow Light Snow
4:35 PM 24.8 °F 20.5 °F 24.8 °F 100% 29.93 in 2.5 mi East 3.5 mph - 0.00 in Snow Light Snow
4:53 PM 25.0 °F - 24.1 °F 96% 29.93 in 2.0 mi Calm Calm - 0.00 in Snow Light Snow
5:12 PM 24.8 °F - 24.8 °F 100% 29.93 in 1.5 mi Calm Calm - 0.00 in Snow Light Snow
5:53 PM 25.0 °F - 24.1 °F 96% 29.94 in 1.0 mi Calm Calm - 0.00 in Snow Light Snow
6:53 PM 25.0 °F - 24.1 °F 96% 29.95 in 2.0 mi Calm Calm - 0.00 in Snow Light Snow
7:53 PM 25.0 °F - 24.1 °F 96% 29.95 in 2.0 mi Calm Calm - 0.00 in Snow Light Snow
8:45 PM 24.8 °F 20.5 °F 24.8 °F 100% 29.95 in 2.0 mi West 3.5 mph - 0.00 in Snow Light Snow
8:53 PM 26.1 °F 21.9 °F 24.1 °F 92% 29.96 in 2.0 mi West 3.5 mph - 0.00 in Snow Light Snow
9:00 PM 24.8 °F 20.5 °F 24.8 °F 100% 29.95 in 5.0 mi West 3.5 mph - 0.00 in Snow Light Snow
9:10 PM 26.6 °F 21.2 °F 24.8 °F 93% 29.96 in 1.8 mi West 4.6 mph - 0.00 in Snow Light Snow
9:53 PM 25.0 °F 18.1 °F 24.1 °F 96% 29.97 in 3.0 mi WSW 5.8 mph - 0.00 in Snow Light Snow
10:26 PM 26.6 °F 21.2 °F 24.8 °F 93% 29.97 in 1.8 mi WSW 4.6 mph - 0.00 in Snow Light Snow
10:53 PM 26.1 °F 19.4 °F 25.0 °F 96% 29.98 in 2.0 mi West 5.8 mph - 0.00 in Snow Light Snow
11:11 PM 26.6 °F 20.0 °F 24.8 °F 93% 29.97 in 3.0 mi West 5.8 mph - 0.00 in Snow Light Snow
11:53 PM 27.0 °F 23.0 °F 26.1 °F 96% 29.99 in 1.5 mi WNW 3.5 mph - 0.00 in Snow Light Snow